Location: Alsip
(41.6689°N, 87.7387°W)
Time: 20:53:09
(UTC+00:00)

Cosmos 1048 Rocket - Pass Details

Date: 28 October 2020
Orbit: 743 x 792 km, 74.0° (Epoch: 03 December)

Event Time Altitude Azimuth Distance (km) Brightness Sun altitude
Exits shadow 09:43:54 13° 355° (N) 2,179 6.4 -29.4°
Drops below altitude 10° 09:44:28 10° 359° (N) 2,355 6.6 -29.3°
Sets 09:47:13 0° 11° (N) 3,293 7.5 -28.8°
